Miscellaneous Local Product
Issued by NWS North Platte, NE

Current Version | Previous Version | Text Only | Print | Product List | Glossary On
Versions: 1 2 3 4 5 6 7 8 9 10 11 12 13 14 15 16 17 18 19 20 21 22 23 24 25 26 27 28 29 30 31 32 33 34 35 36 37 38 39 40 41 42 43 44 45 46 47 48 49 50
000
AXUS43 KLBF 210310
MISLBF


WESTERN AND NORTH CENTRAL NEBRASKA HOURLY WEATHER ROUNDUP
NATIONAL WEATHER SERVICE NORTH PLATTE NE
1000 PM CDT MON OCT 20 2014

***STATIONS NOT REPORTING VARIABLES SUCH AS SKY/WEATHER OR
PRESSURE ARE PROVIDED BY THE NEBRASKA DEPARTMENT OF
ROADS...RAWS...AND APRS NETWORKS...AND ARE NOT UNDER
NATIONAL WEATHER SERVICE QUALITY CONTROL***

...OBSERVATIONS IN AND NEAR THE EASTERN PANHANDLE OF NEBRASKA...

CITY           SKY/WX    TMP DP  RH WIND       PRES   REMARKS
PINE RIDGE     CLEAR     67  39  35 S18G25    29.95R
CHADRON        CLEAR     68  37  32 S20       29.92F
ALLIANCE       CLEAR     52  40  63 S13       30.01R
SIDNEY         CLEAR     57  39  51 S14       30.07R
WHITECLAY        N/A     66  39  37 S17         N/A
RUSHVILLE        N/A     61  29  29 S16         N/A
CRESCENT LAKE    N/A     58  40  52 S9          N/A
LISCO            N/A     64  33  32 E9          N/A
BIG SPRINGS      N/A     63  42  45 S9          N/A
LEWELLEN         N/A     69  35  28 S17         N/A
$$

...OBSERVATIONS IN NORTH CENTRAL NEBRASKA...

CITY           SKY/WX    TMP DP  RH WIND       PRES   REMARKS
VALENTINE      CLEAR     58  39  49 S5        29.99S
THEDFORD       CLEAR     61  40  46 S9        30.03S
AINSWORTH      CLEAR     58  42  54 S10       30.01S
O`NEILL        CLEAR     56  42  57 SE7       30.04S
ORD            CLEAR     48  40  73 CALM      30.04S
BROKEN BOW     CLEAR     44  38  79 CALM      30.05S
BROWNLEE         N/A     61  37  40 S12         N/A
SPRINGVIEW       N/A     54  43  66 CALM        N/A
BREWSTER         N/A     51  42  70 CALM        N/A
ROSE             N/A     59  45  59 E10         N/A
NEWPORT          N/A     57  42  57 S7          N/A
SARGENT          N/A     52  42  69 CALM        N/A
COMSTOCK         N/A     56  44  64 S9          N/A
CHAMBERS         N/A     52  39  62 S3          N/A
$$

...OBSERVATIONS IN SOUTHWEST NEBRASKA AND FAR NORTHEAST COLORADO...

CITY           SKY/WX    TMP DP  RH WIND       PRES   REMARKS
WRAY           FAIR      60  40  46 S9        30.08S
HOLYOKE        FAIR      59  43  55 S8        30.07S
IMPERIAL       CLEAR     62  37  39 S9        30.07R
OGALLALA       CLEAR     61  39  44 S13       30.04S
NORTH PLATTE   CLEAR     49  40  71 SE9       30.05S
MCCOOK         CLEAR     56  40  55 S7        30.07S
LEXINGTON      CLEAR     55  41  60 SE5       30.06S
PAXTON           N/A     60  41  49 S7          N/A
SUTHERLAND       N/A     61  38  41 S9          N/A
BRADY            N/A     54  40  59 CALM        N/A
GOTHENBURG       N/A     61  38  43 CALM        N/A
CALLAWAY         N/A     50  41  70 SE5         N/A
$$

...SOME WEATHER OBSERVATIONS FROM AROUND THE REGION...

CITY           SKY/WX    TMP DP  RH WIND       PRES   REMARKS
DENVER         PTCLDY    61  34  36 S21       30.07S
LARAMIE        CLEAR     47  33  58 S3        30.15R
CHEYENNE       PTCLDY    53  35  50 S6        30.10S
SCOTTSBLUFF    CLEAR     52  38  58 E8        30.01R
RAPID CITY     CLEAR     57  43  59 SE6       29.90F
PIERRE         CLEAR     60  38  43 SE16      29.93S
WINNER         FAIR      58  40  51 SE9       29.97S
SIOUX FALLS    CLEAR     49  39  68 CALM      30.05R
OMAHA          CLEAR     52  43  71 CALM      30.07R
GRAND ISLAND   CLEAR     52  41  66 SE7       30.07S
KANSAS CITY    CLEAR     61  42  49 E3        30.06R
WICHITA        CLEAR     66  46  48 NE3       30.07R
HAYS           CLEAR     55  43  62 SE3       30.09R
LIBERAL        CLEAR     63  52  67 E7        30.12R
GOODLAND       CLEAR     53  39  59 S12       30.11S
$$



USA.gov is the U.S. government's official web portal to all federal, state and local government web resources and services.